TimeCST,TemperatureF,Dew PointF,Humidity,Sea Level PressureIn,VisibilityMPH,Wind Direction,Wind SpeedMPH,Gust SpeedMPH,PrecipitationIn,Events,Conditions,WindDirDegrees,DateUTC
12:56 AM,27.0,23.0,85,30.45,10.0,Calm,Calm,-,N/A,,Mostly Cloudy,0,2012-12-30 06:56:00
1:56 AM,28.0,21.9,78,30.46,10.0,Calm,Calm,-,N/A,,Mostly Cloudy,0,2012-12-30 07:56:00
2:56 AM,28.9,23.0,78,30.47,10.0,Calm,Calm,-,N/A,,Mostly Cloudy,0,2012-12-30 08:56:00
3:56 AM,27.0,21.9,81,30.47,10.0,Calm,Calm,-,N/A,,Mostly Cloudy,0,2012-12-30 09:56:00
4:56 AM,27.0,23.0,85,30.48,10.0,Calm,Calm,-,N/A,,Mostly Cloudy,0,2012-12-30 10:56:00
5:56 AM,24.1,21.0,88,30.48,10.0,Calm,Calm,-,N/A,,Mostly Cloudy,0,2012-12-30 11:56:00
6:56 AM,24.1,21.0,88,30.51,10.0,Calm,Calm,-,N/A,,Mostly Cloudy,0,2012-12-30 12:56:00
7:56 AM,25.0,21.9,88,30.51,10.0,Calm,Calm,-,N/A,,Mostly Cloudy,0,2012-12-30 13:56:00
8:56 AM,33.1,27.0,78,30.51,10.0,SE,6.9,-,N/A,,Mostly Cloudy,140,2012-12-30 14:56:00
9:56 AM,37.9,26.1,62,30.52,10.0,ESE,11.5,-,N/A,,Scattered Clouds,110,2012-12-30 15:56:00
10:56 AM,42.1,25.0,51,30.51,10.0,ESE,8.1,-,N/A,,Mostly Cloudy,120,2012-12-30 16:56:00
11:56 AM,43.0,23.0,45,30.46,10.0,ESE,8.1,-,N/A,,Mostly Cloudy,120,2012-12-30 17:56:00
12:56 PM,45.0,24.1,44,30.44,10.0,SE,5.8,-,N/A,,Mostly Cloudy,130,2012-12-30 18:56:00
1:56 PM,45.0,25.0,46,30.40,10.0,Variable,5.8,-,N/A,,Mostly Cloudy,0,2012-12-30 19:56:00
2:56 PM,46.0,23.0,40,30.40,10.0,SE,5.8,-,N/A,,Overcast,130,2012-12-30 20:56:00
3:56 PM,45.0,24.1,44,30.39,10.0,SSE,8.1,-,N/A,,Overcast,150,2012-12-30 21:56:00
4:56 PM,44.1,26.1,49,30.38,10.0,SE,6.9,-,N/A,,Overcast,140,2012-12-30 22:56:00
5:56 PM,43.0,27.0,53,30.37,10.0,SSE,6.9,-,N/A,,Overcast,160,2012-12-30 23:56:00
6:56 PM,43.0,26.1,51,30.34,10.0,SE,5.8,-,N/A,,Overcast,140,2012-12-31 00:56:00
7:56 PM,43.0,27.0,53,30.35,10.0,SE,4.6,-,N/A,,Overcast,140,2012-12-31 01:56:00
8:56 PM,43.0,27.0,53,30.33,10.0,SE,6.9,-,N/A,,Overcast,140,2012-12-31 02:56:00
9:56 PM,42.1,28.0,58,30.32,10.0,SSE,5.8,-,N/A,,Overcast,150,2012-12-31 03:56:00
10:56 PM,39.0,28.9,67,30.32,10.0,SSE,4.6,-,N/A,,Overcast,160,2012-12-31 04:56:00
11:56 PM,39.9,28.9,65,30.31,10.0,SE,3.5,-,N/A,,Overcast,130,2012-12-31 05:56:00